Location: ??????????
(54.8537°N, 38.8755°E)
Time: 20:36:13
(UTC+00:00)

Tiros 1 despin weight - Pass Details

Date: 19 September 2024
Orbit: 572 x 613 km, 48.2° (Epoch: 13 October)

Event Time Altitude Azimuth Distance (km) Brightness Sun altitude
Exits shadow 23:46:24 19° 123° (ESE) 1,481 ? -26.4°
Drops below altitude 10° 23:48:11 10° 104° (ESE) 1,975 ? -26.2°
Sets 23:50:49 0° 91° (E) 2,885 ? -26.0°
